Flag for U.S.A. Weather past 2 weeks in San Bernardino, California, U.S.A.

56 °F

Light rain. Mostly cloudy.

Feels Like: 56 °F
Forecast: 42 / 58 °F
Wind: 3 mph from Northwest

Location: Riverside Municipal Airport

Current Time: Nov 25, 2015 at 1:19:12 AM

Latest Report: Nov 25, 2015 at 12:53 AM

Visibility: 7 mi

Pressure: 29.83 "Hg

Humidity: 81%

Dew point: 50 °F

Location of San BernardinoLocation

Historic Weather in San Bernardino — Graph


San Bernardino temperature yesterday

Maximum temperature yesterday: 72 °F (at 12:53 PM)
Minimum temperature yesterday: 48 °F (at 5:53 AM)
Average temperature yesterday: 58 °F

Past Weeks' High & Low Weather Summary

High89 °F (Nov 20, 12:53 PM)80% (Nov 10, 6:53 AM)30.28 "Hg (Nov 10, 6:53 AM)
Low27 °F (Nov 17, 5:55 AM)6% (Nov 22, 12:53 PM)29.80 "Hg (Nov 15, 1:53 PM)
Average62 °F30%29.97 "Hg
* Reported Nov 9 11:53 PM — Nov 24 11:53 PM, San Bernardino, Weather by CustomWeather, © 2015

Note: Actual official high and low records may vary slightly from our data, if they occured in-between our weather recording intervals... More about our weather records


San Bernardino weather history for previous 24 hours

Time TempWeatherWind HumidityBarometerVisibility
11:53 PM
Tue, Nov 24
56 °FOvercast.No wind77%29.85 "Hg10 mi
10:53 PM55 °FPassing clouds.3 mph77%29.87 "Hg10 mi
9:53 PM57 °FPassing clouds.3 mph74%29.87 "Hg10 mi
8:53 PM57 °FMostly cloudy.3 mph78%29.88 "Hg10 mi
7:53 PM57 °FPassing clouds.3 mph78%29.86 "Hg10 mi
6:53 PM58 °FClear.3 mph72%29.85 "Hg10 mi
5:53 PM59 °FClear.No wind69%29.85 "Hg10 mi
4:53 PM61 °FPassing clouds.7 mph67%29.84 "Hg10 mi
3:53 PM65 °FScattered clouds.7 mph59%29.84 "Hg10 mi
2:53 PM67 °FPartly sunny.8 mph57%29.84 "Hg10 mi
1:53 PM71 °FScattered clouds.10 mph44%29.83 "Hg10 mi
12:53 PM72 °FScattered clouds.7 mph26%29.86 "Hg10 mi
11:53 AM70 °FPassing clouds.6 mph29%29.89 "Hg10 mi
10:53 AM66 °FPassing clouds.6 mph29%29.93 "Hg10 mi
9:53 AM63 °FPassing clouds.3 mph31%29.95 "Hg10 mi
8:53 AM59 °FSunny.No wind38%29.95 "Hg10 mi
7:53 AM52 °FSunny.6 mph49%29.94 "Hg10 mi
6:53 AM49 °FSunny.3 mph55%29.94 "Hg10 mi
5:53 AM48 °FClear.No wind59%29.93 "Hg10 mi
4:53 AM50 °FClear.3 mph52%29.92 "Hg10 mi
3:53 AM51 °FClear.5 mph52%29.92 "Hg10 mi
2:53 AM51 °FClear.5 mph54%29.92 "Hg10 mi
1:53 AM53 °FClear.5 mph48%29.92 "Hg10 mi
Weather by CustomWeather, © 2015

See weather overviewHow to use our weather pages